Location: Erlenbrunn
(49.1717°N, 7.6142°E)
Time: 12:42:22
(UTC+00:00)

YAOGAN 1 - Pass Details

Date: 25 November 2020
Orbit: 618 x 620 km, 97.9° (Epoch: 26 January)

Event Time Altitude Azimuth Distance (km) Brightness Sun altitude
Exits shadow 17:01:40 18° 95° (E) 1,521 4.0 -13.3°
Maximum altitude 17:03:22 23° 63° (ENE) 1,328 3.7 -13.6°
Drops below altitude 10° 17:06:47 10° 11° (N) 2,000 4.9 -14.1°
Sets 17:09:19 0° 357° (N) 2,912 5.9 -14.5°
